Temperature
25 22 21 22 23 24 25 25 25 26 26 25 25 25 26 27 26 25 23 22 22 22 22 22 22 22 21 21 21 21 21 20 20 20 19 19 19 19 19 19 19 19 19 19
22 22 24 25 27 27 26 25 24 25 26 26 25 24 24 24 25 24 23 22 22 22 22 22 22 22 21 21 21 21 21 21 20 20 19 19 19 19 18 19 19 18 18 18
23 24 27 27 27 26 25 25 24 24 24 24 24 22 22 22 23 23 22 22 22 22 22 22 22 22 22 21 21 21 21 21 20 20 19 18 18 18 18 18 18 18 18 18
25 27 27 27 26 26 24 25 25 24 22 20 22 20 21 21 21 21 21 22 22 22 22 22 22 22 22 22 22 21 21 21 20 19 18 18 17 17 17 17 17 17 17 17
25 26 27 26 27 27 26 26 25 24 22 21 21 20 20 20 21 20 21 22 23 23 23 23 23 23 23 22 22 21 21 20 20 19 18 17 17 17 16 16 16 16 17 16
26 27 27 26 27 27 26 24 22 20 18 19 21 21 19 19 20 20 21 22 23 23 24 24 23 23 22 22 21 21 21 20 19 18 17 17 16 16 16 16 16 16 16 16
24 25 25 26 26 25 24 19 18 19 18 19 20 20 19 20 21 21 21 22 23 24 24 24 23 23 22 22 21 21 20 20 19 18 17 16 16 16 16 15 15 15 15 15
23 22 25 26 25 24 25 20 18 19 18 18 19 20 20 21 22 23 23 23 24 24 24 24 24 23 22 22 21 21 20 19 18 17 17 16 16 15 15 15 14 14 14 14
22 23 25 26 27 25 24 22 19 17 19 19 19 21 21 21 21 22 23 23 24 24 24 24 23 23 22 22 21 21 20 19 18 17 16 16 15 15 15 14 14 13 13 13
23 23 24 25 25 25 24 22 18 18 19 18 19 20 19 21 21 21 21 23 24 24 23 23 23 23 22 22 21 20 20 19 18 17 16 16 15 15 14 14 13 13 12 12
23 21 21 22 23 23 23 23 20 17 16 17 17 18 20 20 20 20 21 22 23 23 23 23 23 22 22 21 21 20 20 19 18 17 16 15 15 14 14 13 13 12 12 12
21 18 18 20 21 22 23 22 19 18 18 17 16 18 20 19 19 19 20 21 21 21 21 22 22 22 22 21 21 20 20 19 18 17 16 15 14 14 13 13 12 12 12 12
21 18 18 18 19 20 21 22 21 18 17 16 17 18 18 18 18 18 19 19 19 19 19 19 20 20 20 20 20 20 20 19 18 16 16 15 14 14 13 13 12 12 12 11
20 18 18 19 19 19 20 21 21 20 17 17 18 17 16 16 16 16 17 17 16 16 17 17 17 18 18 19 19 19 19 19 18 17 16 15 14 14 13 12 12 12 11 11
19 19 19 19 20 21 21 21 22 20 19 18 17 15 15 14 15 15 14 14 14 14 14 15 15 16 17 17 17 18 18 18 18 17 16 15 14 14 13 12 12 12 11 11
19 20 20 20 21 21 21 20 20 18 17 17 15 14 13 14 14 13 12 12 12 12 13 13 14 14 15 15 16 16 17 18 18 17 16 15 14 14 13 12 12 12 11 11
18 18 19 18 19 20 18 18 16 14 13 14 13 12 11 11 12 11 11 11 11 11 11 12 12 12 13 13 14 15 16 17 17 17 16 15 14 14 13 12 12 12 11 11
18 17 16 16 19 19 18 17 15 12 11 11 11 10 10 10 11 11 12 11 11 11 11 11 11 11 11 12 13 14 15 15 16 16 16 15 14 14 13 12 12 11 11 11
17 17 16 16 17 18 17 15 15 14 10 10 9 9 9 9 11 12 12 11 10 10 10 10 10 10 10 11 11 12 13 14 15 15 15 15 14 14 13 12 12 12 11 11
17 16 16 16 17 16 14 13 13 14 10 8 9 9 9 9 9 10 11 10 10 10 10 10 10 10 10 10 10 10 11 12 12 13 14 15 14 14 13 13 12 12 11 11
17 16 16 16 16 14 10 11 13 13 11 9 9 8 8 8 8 9 9 9 10 10 10 10 10 10 10 9 9 9 9 10 10 11 12 13 14 14 13 13 12 12 11 11
14 14 14 14 15 13 9 10 9 9 9 9 9 8 8 8 8 8 9 9 10 10 10 10 10 9 9 9 9 9 9 9 9 10 11 12 13 13 13 13 12 12 11 11
12 12 12 11 11 9 9 9 9 9 9 9 9 9 9 8 8 9 9 10 10 10 10 10 10 9 9 9 9 8 8 8 8 9 10 11 12 13 13 13 12 12 11 11
12 12 11 10 9 9 9 10 10 10 9 9 9 9 9 8 9 9 9 10 10 10 10 10 9 9 9 9 9 8 8 8 8 8 9 10 11 12 12 13 13 12 11 11
10 11 11 9 9 9 10 10 10 10 10 10 9 9 9 9 9 9 9 9 9 10 10 10 9 9 9 9 9 8 8 7 7 8 8 9 10 11 12 12 13 12 12 12
9 9 8 8 9 9 10 11 10 10 10 9 9 9 9 9 9 9 9 9 9 9 9 9 9 9 9 9 8 8 8 7 7 7 8 8 9 10 11 12 12 12 12 12
Wind_Speed
2 2 5 8 8 9 5 3 4 5 8 9 8 6 6 4 2 7 9 9 10 9 7 7 8 8 8 7 7 5 4 3 2 0 1 3 4 5 5 6 7 8 8 9
4 7 13 10 4 2 4 5 4 4 7 6 6 6 7 7 5 5 10 10 10 8 6 6 6 6 6 6 5 5 5 3 3 2 2 3 4 5 5 6 7 8 8 8
9 8 6 2 4 6 6 2 3 3 4 5 4 7 7 7 6 7 8 8 9 10 9 8 7 6 6 6 7 6 7 5 4 3 1 2 3 4 5 6 7 8 7 7
4 2 2 2 3 4 3 2 5 7 7 5 4 4 8 3 4 5 7 7 8 8 8 8 8 8 8 8 8 8 7 5 3 2 1 1 3 6 7 7 7 9 9 9
5 3 3 2 3 3 1 2 5 5 4 5 4 0 7 1 3 3 4 5 7 8 10 10 10 10 10 9 8 7 6 4 2 2 1 1 4 5 7 8 10 10 9 9
3 3 2 2 2 2 3 7 9 7 5 2 5 2 6 4 5 4 4 6 8 9 10 10 10 9 8 7 6 6 6 4 2 2 2 2 4 7 9 10 10 9 8 8
6 5 4 2 3 6 7 7 6 7 6 5 4 1 6 6 6 8 8 9 10 10 9 9 10 10 8 7 6 6 6 4 3 2 2 1 3 5 6 8 8 9 9 9
0 5 4 2 3 4 2 8 6 3 4 6 4 1 5 5 7 9 9 10 10 9 8 9 10 8 8 8 8 7 7 5 4 3 2 0 2 2 4 5 7 8 8 9
2 4 6 6 3 6 2 2 8 7 2 3 4 2 5 5 5 8 9 8 8 8 8 8 7 8 9 9 9 9 8 6 6 5 3 1 1 2 4 5 5 6 7 9
3 2 5 6 4 2 4 6 6 4 1 3 6 4 5 8 8 8 9 9 8 6 4 5 6 8 8 9 8 8 8 8 7 6 5 3 2 1 2 4 6 7 8 8
4 2 6 6 3 4 3 1 4 5 6 5 5 7 8 9 9 7 6 4 2 2 2 3 5 7 8 8 8 8 8 7 7 7 5 4 3 2 2 3 5 6 6 8
4 5 3 8 8 5 3 3 6 4 6 6 5 8 9 3 5 5 6 6 6 6 6 5 4 5 7 8 8 9 9 8 8 8 7 6 5 3 2 3 5 6 6 7
6 6 4 10 9 8 5 4 2 4 3 5 5 4 9 11 12 10 9 9 10 11 12 11 9 6 6 7 8 9 9 9 8 8 7 7 6 5 4 4 4 4 5 6
6 5 6 5 8 7 9 12 12 6 4 6 5 2 9 11 11 11 12 11 12 13 14 15 14 13 10 8 7 8 9 9 8 8 8 8 7 7 6 4 3 3 3 4
5 4 6 8 8 7 10 13 14 10 7 5 5 7 7 10 9 11 12 14 16 16 17 16 14 13 13 12 11 10 9 9 9 9 9 9 8 7 6 5 3 2 2 2
3 5 3 4 6 8 7 9 6 8 8 7 9 7 9 9 9 11 13 15 15 15 16 16 15 15 15 15 15 14 11 10 9 9 9 8 8 7 7 6 4 3 2 0
2 5 3 4 6 5 4 7 5 8 10 7 6 7 12 12 14 9 11 14 15 16 17 16 15 14 14 15 15 17 15 11 9 10 9 8 9 8 8 6 5 5 4 3
7 6 5 3 2 2 2 8 11 12 12 12 9 9 11 12 13 4 7 11 14 15 16 15 15 14 13 13 14 17 17 11 10 9 9 9 9 9 8 7 6 6 5 5
8 8 5 4 4 5 4 6 6 3 5 9 8 10 11 13 11 5 6 9 11 12 12 11 12 12 12 13 14 16 18 14 9 9 10 10 11 10 10 9 8 6 5 5
6 5 5 3 3 5 2 10 15 2 3 4 8 11 13 13 11 8 13 16 17 15 13 13 12 11 11 12 12 12 14 15 12 10 8 9 11 12 12 11 8 6 6 7
6 6 2 2 4 0 5 13 11 3 5 8 9 11 11 8 9 13 17 18 17 16 16 14 13 10 10 11 11 12 12 13 14 14 10 8 11 12 12 11 8 7 7 8
4 5 5 3 3 2 8 6 4 3 7 10 12 12 12 14 17 18 18 18 17 15 15 13 12 11 10 9 9 11 12 12 13 13 12 8 9 11 11 12 10 9 10 9
5 3 1 3 1 1 0 2 6 8 9 11 11 14 15 18 20 21 19 18 17 16 14 12 11 12 11 9 8 10 11 12 13 13 12 10 9 10 12 13 13 11 10 9
5 5 4 4 2 3 5 7 8 10 13 15 16 18 18 20 21 21 20 18 16 15 14 12 11 12 12 10 9 9 10 10 11 12 12 11 9 10 11 12 12 12 12 11
5 5 4 3 2 6 7 10 12 13 14 16 18 18 19 20 22 22 20 18 17 16 14 12 11 12 13 12 10 10 9 9 11 12 10 10 9 10 11 12 13 15 13 15
3 3 2 2 6 6 10 12 15 16 17 19 20 21 20 19 19 19 17 15 15 16 14 13 13 13 13 12 11 10 9 8 9 10 10 8 8 7 9 11 9 12 12 18
Wind_Direction
285 98 252 242 215 209 244 305 340 357 8 44 28 4 340 347 83 149 150 141 131 127 128 116 110 107 103 100 102 106 111 119 117 81 298 295 291 290 290 282 273 273 270 265
339 263 245 239 253 314 344 359 1 0 7 36 6 340 332 339 325 185 161 150 140 134 132 128 123 119 117 123 125 136 150 168 178 199 221 242 266 280 278 284 290 283 279 274
219 244 221 189 349 352 350 41 48 2 3 23 28 341 326 335 33 86 120 139 148 158 163 161 153 150 149 158 165 170 184 189 193 197 214 305 312 308 304 302 296 291 288 285
226 259 80 41 326 345 323 23 43 14 17 328 43 316 300 324 60 97 128 147 170 173 169 172 173 175 181 189 182 177 179 173 172 148 106 308 296 294 290 291 290 292 290 287
335 10 34 344 313 11 246 42 23 343 332 330 339 256 287 351 153 178 168 174 189 187 183 188 189 193 195 188 180 172 154 145 138 112 86 333 305 295 301 304 301 299 296 290
312 339 8 290 315 7 51 31 4 20 57 1 272 205 284 257 208 191 195 202 209 207 201 204 205 200 196 186 169 152 140 137 122 90 56 14 326 319 320 319 314 309 304 299
332 331 320 311 1 3 64 68 22 359 6 275 283 104 270 266 186 183 196 211 222 223 215 212 208 203 197 183 168 157 148 147 137 113 75 16 339 328 320 319 319 318 314 309
276 305 296 280 200 190 156 129 148 207 252 285 333 159 259 260 189 198 206 215 225 233 228 221 214 203 193 185 174 169 163 166 169 158 152 86 347 327 314 316 319 318 314 309
168 269 308 314 269 149 160 177 168 147 275 309 296 262 275 260 224 213 214 218 227 232 227 220 208 192 187 182 181 181 175 181 186 182 171 163 332 327 317 320 321 319 319 318
125 273 305 327 6 5 164 156 89 96 176 284 292 284 242 242 244 237 221 215 221 224 218 205 195 195 191 187 189 188 184 188 191 187 181 176 198 257 302 318 320 319 321 324
97 97 318 350 348 289 299 195 137 145 168 178 263 272 245 232 231 231 238 240 264 278 254 237 226 210 200 193 190 193 194 192 194 194 189 184 199 223 277 301 304 310 316 324
123 108 308 285 275 267 203 194 150 164 239 198 210 273 320 6 29 47 45 33 18 6 349 317 277 238 212 204 202 202 201 200 202 198 194 194 200 206 236 281 298 308 317 325
122 95 13 344 345 357 1 331 261 186 172 204 212 267 9 41 44 41 40 30 22 15 9 359 345 316 263 233 219 213 209 209 204 195 195 199 202 204 216 252 285 309 325 337
106 118 157 212 250 281 304 306 303 291 251 244 222 114 15 18 22 20 24 24 25 22 19 12 3 354 331 297 261 232 222 214 204 195 195 201 204 201 205 219 256 298 327 349
97 160 207 224 247 268 287 297 297 291 268 213 129 94 27 2 6 17 24 23 23 18 14 9 2 356 351 339 315 282 248 225 206 195 198 206 203 195 194 203 229 272 306 352
115 172 213 278 272 287 302 333 354 27 23 77 93 61 359 345 11 27 23 19 14 6 2 358 356 354 349 342 335 314 277 246 212 199 203 202 192 188 190 198 205 212 226 251
212 166 170 262 295 345 17 358 76 70 33 43 54 18 353 353 357 13 15 11 1 353 348 345 344 343 342 339 335 329 301 266 224 208 201 192 188 187 189 189 186 196 199 184
187 160 158 210 352 271 151 62 95 95 59 41 36 9 355 338 316 307 22 360 340 336 334 332 330 330 331 335 336 334 323 286 238 214 202 192 187 187 183 179 186 193 184 176
180 157 148 158 209 249 116 36 354 306 77 30 11 347 336 324 307 262 339 331 313 310 310 311 315 315 319 327 333 337 337 319 275 230 208 197 188 184 179 180 186 185 173 168
48 84 131 165 213 249 318 336 321 289 123 11 341 323 324 335 335 312 324 324 316 312 311 311 312 314 318 321 326 334 338 336 320 288 241 206 192 185 184 182 179 174 168 166
359 4 10 277 259 203 339 325 334 4 310 309 300 300 305 298 272 285 299 299 296 296 300 301 302 303 303 310 321 326 327 328 322 313 288 232 200 191 184 177 171 166 164 159
48 22 3 355 310 323 359 14 48 265 269 276 284 286 286 281 281 284 286 286 286 288 290 292 292 290 289 294 308 315 315 314 315 315 303 263 217 197 186 175 173 168 165 165
52 16 34 50 53 149 327 191 223 238 264 275 278 280 279 281 283 284 285 284 283 280 282 283 282 285 286 283 287 297 302 309 314 313 312 295 244 209 183 178 177 173 171 173
13 11 103 94 122 232 253 254 253 251 258 267 271 274 277 278 280 283 284 283 279 277 274 272 273 278 281 278 276 274 287 300 304 306 309 306 267 220 192 182 179 179 181 180
6 13 58 73 313 304 281 274 275 277 277 281 282 282 282 283 286 288 290 289 287 283 276 269 266 269 271 272 271 273 280 289 294 298 300 303 281 228 198 189 187 185 188 186
24 51 65 265 253 252 270 275 284 290 291 291 292 292 290 288 290 293 293 293 293 291 286 279 271 265 265 266 266 268 271 271 280 292 295 295 290 249 206 189 185 191 184 185
Height
1512 1517 1521 1515 1512 1512 1512 1513 1515 1508 1498 1500 1504 1502 1497 1495 1496 1498 1500 1501 1502 1503 1506 1507 1508 1510 1512 1514 1515 1516 1516 1516 1515 1514 1512 1510 1508 1507 1505 1505 1503 1502 1501 1500
1518 1519 1508 1505 1503 1504 1507 1514 1515 1508 1501 1502 1506 1505 1500 1497 1496 1496 1498 1500 1501 1503 1505 1506 1508 1509 1511 1512 1513 1513 1513 1513 1512 1511 1509 1507 1504 1502 1500 1498 1497 1495 1494 1492
1518 1509 1500 1501 1503 1506 1509 1514 1514 1513 1507 1505 1508 1515 1508 1501 1496 1496 1499 1501 1502 1503 1504 1505 1507 1508 1509 1510 1510 1510 1509 1508 1508 1506 1504 1502 1500 1497 1494 1492 1489 1488 1486 1484
1507 1500 1500 1503 1505 1505 1515 1506 1505 1507 1516 1524 1517 1534 1514 1505 1502 1500 1500 1501 1502 1503 1503 1504 1505 1506 1507 1507 1506 1506 1505 1504 1503 1502 1500 1497 1494 1491 1488 1485 1482 1480 1478 1477
1508 1502 1502 1506 1504 1502 1506 1501 1503 1506 1514 1523 1520 1529 1522 1507 1507 1504 1503 1502 1503 1502 1502 1502 1502 1503 1503 1503 1503 1502 1502 1501 1500 1498 1495 1493 1490 1486 1483 1479 1476 1473 1470 1469
1503 1500 1501 1502 1499 1499 1500 1505 1509 1516 1525 1538 1523 1528 1529 1514 1507 1505 1503 1502 1501 1500 1500 1499 1499 1500 1500 1500 1500 1500 1499 1498 1496 1494 1492 1489 1485 1482 1478 1474 1470 1466 1463 1461
1513 1505 1501 1500 1503 1503 1506 1526 1545 1545 1550 1544 1523 1526 1526 1506 1500 1500 1499 1498 1497 1497 1497 1497 1497 1497 1497 1497 1497 1497 1496 1495 1493 1490 1488 1485 1482 1478 1474 1470 1466 1462 1458 1455
1524 1524 1505 1500 1503 1508 1507 1522 1547 1555 1556 1545 1528 1526 1518 1500 1496 1495 1494 1494 1494 1494 1494 1494 1494 1494 1494 1495 1494 1494 1493 1491 1489 1487 1484 1482 1478 1475 1471 1468 1464 1459 1455 1451
1523 1522 1503 1499 1497 1500 1509 1517 1521 1539 1539 1543 1535 1520 1509 1499 1496 1493 1492 1492 1491 1491 1491 1491 1491 1491 1491 1492 1491 1491 1490 1488 1486 1483 1481 1478 1476 1472 1469 1465 1461 1457 1453 1448
1511 1519 1509 1501 1498 1498 1502 1509 1525 1536 1547 1552 1538 1527 1521 1503 1498 1493 1490 1489 1489 1489 1489 1489 1489 1489 1489 1489 1488 1488 1486 1484 1482 1480 1478 1475 1473 1470 1467 1463 1459 1455 1451 1446
1507 1521 1518 1510 1509 1510 1508 1510 1518 1532 1539 1549 1551 1536 1501 1496 1492 1491 1489 1489 1490 1491 1490 1490 1489 1488 1487 1486 1485 1484 1482 1481 1479 1477 1474 1472 1470 1467 1465 1462 1458 1454 1450 1446
1508 1521 1528 1518 1505 1501 1503 1507 1518 1533 1534 1535 1541 1530 1498 1494 1493 1492 1492 1493 1493 1493 1492 1490 1488 1486 1484 1483 1482 1480 1479 1477 1475 1473 1471 1469 1467 1465 1463 1460 1457 1454 1450 1446
1507 1523 1537 1531 1522 1509 1507 1504 1508 1517 1526 1531 1536 1526 1505 1500 1498 1497 1496 1495 1494 1493 1491 1489 1487 1485 1483 1481 1479 1477 1476 1474 1471 1469 1468 1466 1464 1462 1460 1459 1456 1453 1450 1446
1503 1520 1532 1538 1530 1518 1514 1506 1502 1509 1522 1523 1519 1518 1513 1508 1505 1502 1500 1498 1496 1493 1491 1489 1487 1485 1483 1481 1479 1475 1473 1470 1468 1465 1464 1462 1461 1459 1458 1457 1455 1453 1450 1447
1505 1518 1517 1517 1512 1509 1508 1504 1499 1501 1503 1511 1515 1518 1519 1515 1511 1508 1504 1500 1497 1494 1491 1489 1487 1485 1482 1479 1477 1473 1470 1466 1463 1461 1459 1458 1457 1456 1455 1454 1454 1453 1451 1449
1505 1513 1512 1514 1507 1505 1506 1504 1501 1506 1507 1509 1515 1521 1520 1517 1513 1509 1506 1503 1500 1497 1494 1490 1486 1483 1479 1476 1472 1468 1465 1462 1459 1456 1455 1454 1454 1453 1452 1452 1452 1452 1451 1450
1506 1511 1517 1522 1511 1509 1517 1513 1513 1519 1521 1518 1524 1527 1523 1517 1514 1511 1507 1503 1500 1497 1493 1490 1486 1482 1478 1473 1468 1463 1458 1456 1453 1451 1450 1450 1450 1449 1449 1449 1450 1450 1451 1450
1503 1511 1519 1522 1517 1523 1520 1514 1516 1524 1529 1528 1528 1527 1524 1520 1515 1510 1506 1503 1498 1494 1490 1487 1484 1479 1475 1469 1463 1457 1452 1448 1446 1445 1444 1445 1445 1445 1445 1446 1447 1449 1450 1450
1494 1505 1517 1524 1524 1517 1517 1517 1519 1520 1529 1531 1529 1526 1522 1517 1510 1505 1503 1499 1495 1491 1487 1483 1479 1475 1471 1466 1459 1453 1447 1442 1440 1439 1438 1439 1439 1440 1441 1442 1444 1446 1448 1449
1498 1503 1513 1520 1523 1527 1525 1521 1517 1517 1529 1530 1527 1523 1518 1512 1508 1501 1497 1493 1489 1486 1483 1478 1474 1470 1466 1461 1456 1450 1444 1438 1435 1434 1433 1433 1433 1434 1435 1437 1440 1443 1445 1448
1512 1514 1517 1521 1524 1523 1532 1524 1517 1524 1529 1527 1523 1519 1516 1513 1509 1501 1495 1490 1486 1482 1478 1474 1469 1464 1460 1456 1451 1446 1441 1435 1431 1427 1426 1426 1427 1428 1430 1432 1435 1439 1443 1445
1524 1526 1526 1526 1526 1532 1534 1529 1532 1535 1528 1523 1520 1516 1512 1507 1501 1495 1489 1484 1479 1475 1471 1467 1462 1458 1455 1451 1446 1441 1436 1431 1426 1421 1418 1418 1419 1421 1423 1426 1430 1434 1439 1442
1528 1530 1529 1533 1537 1537 1533 1532 1531 1528 1524 1519 1516 1511 1506 1500 1493 1488 1482 1477 1472 1467 1463 1459 1455 1451 1447 1444 1440 1435 1430 1425 1420 1415 1411 1410 1411 1414 1416 1419 1423 1428 1433 1437
1529 1527 1530 1534 1536 1535 1532 1530 1527 1523 1519 1514 1509 1504 1499 1493 1486 1480 1474 1469 1464 1459 1455 1451 1447 1442 1439 1436 1433 1428 1424 1419 1414 1409 1405 1402 1403 1405 1408 1412 1416 1420 1426 1431
1535 1531 1533 1536 1536 1533 1530 1526 1522 1517 1513 1508 1503 1498 1493 1487 1479 1473 1467 1461 1455 1450 1445 1441 1438 1433 1430 1427 1424 1420 1416 1411 1407 1402 1398 1395 1395 1396 1400 1404 1407 1412 1418 1423
1537 1538 1539 1539 1535 1533 1527 1521 1517 1512 1507 1502 1496 1490 1485 1480 1473 1466 1459 1454 1448 1442 1437 1432 1428 1424 1421 1418 1414 1412 1408 1404 1400 1395 1392 1388 1387 1388 1391 1396 1401 1406 1412 1418